Location: ?????
(42.2640°N, 43.4211°E)
Time: 15:22:45
(UTC+00:00)

Cosmos 1484 Rocket - Pass Details

Date: 07 August 2020
Orbit: 506 x 559 km, 97.4° (Epoch: 19 September)

Event Time Altitude Azimuth Distance (km) Brightness Sun altitude
Rises 01:18:32 0° 21° (NNE) 2,622 7.2 -8.6°
Reaches altitude 10° 01:20:47 10° 31° (NNE) 1,729 6.5 -8.2°
Maximum altitude 01:24:10 33° 97° (E) 872 4.5 -7.7°
Drops below altitude 10° 01:27:32 10° 163° (SSE) 1,717 5.2 -7.1°
Sets 01:29:45 0° 173° (S) 2,600 6.0 -6.8°
